AAL59 KCLE-KPIT

Flight info

Callsign AAL59
Flight time 0h 27m
Altitude 17000
Route KKIDS1 KKIDS CUTTA JESEY5
Aircraft A319/M-SDE3FGHIRWY/LB1

Departure

Time 2026-05-08 19:03
Airport Cleveland Hopkins International Airport (KCLE)

Arrival

Time 2026-05-08 19:30
Airport Pittsburgh International Airport (KPIT)
Time Latitude Longitude Altitude Speed Heading
2026-05-08 18:27 41.41284 -81.83915 792 ft 0 kts 123°
2026-05-08 18:41 41.41288 -81.83923 792 ft 2 kts 146°
2026-05-08 18:41 41.41302 -81.83934 792 ft 2 kts 138°
2026-05-08 18:42 41.41310 -81.83942 792 ft 1 kts 133°
2026-05-08 18:42 41.41313 -81.83957 792 ft 1 kts 63°
2026-05-08 18:42 41.41305 -81.83965 792 ft 1 kts
2026-05-08 18:42 41.41297 -81.83966 792 ft 0 kts
2026-05-08 18:56 41.41299 -81.83966 792 ft 0 kts
2026-05-08 18:56 41.41311 -81.83968 792 ft 2 kts 344°
2026-05-08 18:56 41.41329 -81.83990 792 ft 4 kts 294°
2026-05-08 18:57 41.41339 -81.84036 791 ft 5 kts 283°
2026-05-08 18:57 41.41347 -81.84074 791 ft 6 kts 290°
2026-05-08 18:57 41.41365 -81.84120 791 ft 0 kts 301°
2026-05-08 18:57 41.41365 -81.84122 791 ft 0 kts 301°
2026-05-08 18:58 41.41380 -81.84141 791 ft 7 kts 324°
2026-05-08 18:58 41.41427 -81.84148 791 ft 0 kts
2026-05-08 19:01 41.41453 -81.84153 791 ft 8 kts 341°
2026-05-08 19:01 41.41495 -81.84208 790 ft 9 kts 290°
2026-05-08 19:01 41.41486 -81.84278 790 ft 0 kts 239°
2026-05-08 19:02 41.41484 -81.84283 790 ft 7 kts 239°
2026-05-08 19:02 41.41259 -81.84640 789 ft 87 kts 228°
2026-05-08 19:02 41.40678 -81.85555 782 ft 153 kts 231°
2026-05-08 19:02 41.39937 -81.86771 1346 ft 161 kts 232°
2026-05-08 19:03 41.39175 -81.87915 2265 ft 152 kts 231°
2026-05-08 19:03 41.38287 -81.88832 2993 ft 163 kts 202°
2026-05-08 19:03 41.37034 -81.88916 3556 ft 185 kts 180°
2026-05-08 19:03 41.35662 -81.88683 4113 ft 203 kts 178°
2026-05-08 19:04 41.34129 -81.88425 4696 ft 221 kts 179°
2026-05-08 19:04 41.32462 -81.88193 5255 ft 242 kts 179°
2026-05-08 19:04 41.30690 -81.87405 5775 ft 266 kts 149°
2026-05-08 19:04 41.29415 -81.85429 5987 ft 277 kts 121°
2026-05-08 19:05 41.28531 -81.83024 5992 ft 279 kts 117°
2026-05-08 19:05 41.27638 -81.80476 5998 ft 296 kts 117°
2026-05-08 19:05 41.26684 -81.77840 5989 ft 297 kts 118°
2026-05-08 19:05 41.25715 -81.75258 5990 ft 297 kts 119°
2026-05-08 19:06 41.24735 -81.72700 5981 ft 297 kts 119°
2026-05-08 19:06 41.23736 -81.70116 5991 ft 297 kts 120°
2026-05-08 19:06 41.22773 -81.67619 5984 ft 297 kts 117°
2026-05-08 19:06 41.22060 -81.64945 5996 ft 300 kts 103°
2026-05-08 19:07 41.21751 -81.62091 6392 ft 309 kts 96°
2026-05-08 19:07 41.21553 -81.59146 7450 ft 311 kts 95°
2026-05-08 19:07 41.21361 -81.56168 8481 ft 314 kts 95°
2026-05-08 19:07 41.21152 -81.53175 9393 ft 320 kts 96°
2026-05-08 19:08 41.20906 -81.50034 10270 ft 326 kts 96°
2026-05-08 19:08 41.20639 -81.46803 10860 ft 342 kts 96°
2026-05-08 19:08 41.20346 -81.43475 11354 ft 359 kts 99°
2026-05-08 19:08 41.19659 -81.40086 12079 ft 365 kts 113°
2026-05-08 19:09 41.18545 -81.37013 12875 ft 367 kts 121°
2026-05-08 19:09 41.17265 -81.33988 13630 ft 371 kts 123°
2026-05-08 19:09 41.15959 -81.30976 14363 ft 376 kts 123°
2026-05-08 19:09 41.14634 -81.27912 15086 ft 380 kts 123°
2026-05-08 19:10 41.13307 -81.24813 15766 ft 385 kts 122°
2026-05-08 19:10 41.11924 -81.21555 16463 ft 390 kts 122°
2026-05-08 19:10 41.10545 -81.18288 16884 ft 394 kts 122°
2026-05-08 19:10 41.09134 -81.14945 16982 ft 394 kts 122°
2026-05-08 19:11 41.07745 -81.11645 16986 ft 394 kts 122°
2026-05-08 19:11 41.06340 -81.08316 16989 ft 393 kts 122°
2026-05-08 19:11 41.04937 -81.04997 16979 ft 393 kts 122°
2026-05-08 19:11 41.03536 -81.01683 16843 ft 390 kts 122°
2026-05-08 19:12 41.02182 -80.98489 16144 ft 398 kts 122°
2026-05-08 19:12 41.00762 -80.95142 15496 ft 401 kts 122°
2026-05-08 19:12 40.99659 -80.92543 15151 ft 399 kts 122°
2026-05-08 19:13 40.99109 -80.91246 14984 ft 397 kts 122°
2026-05-08 19:13 40.97687 -80.87897 14588 ft 393 kts 122°
2026-05-08 19:13 40.96259 -80.84541 14032 ft 382 kts 122°
2026-05-08 19:13 40.94869 -80.81280 13007 ft 380 kts 122°
2026-05-08 19:14 40.93491 -80.78049 12032 ft 374 kts 122°
2026-05-08 19:14 40.92189 -80.74996 11434 ft 359 kts 122°
2026-05-08 19:14 40.90909 -80.72002 10986 ft 348 kts 122°
2026-05-08 19:14 40.89682 -80.69137 10588 ft 341 kts 122°
2026-05-08 19:15 40.88466 -80.66323 10292 ft 333 kts 124°
2026-05-08 19:15 40.87028 -80.63715 9989 ft 324 kts 135°
2026-05-08 19:15 40.85400 -80.61576 9919 ft 312 kts 142°
2026-05-08 19:15 40.83720 -80.59611 9923 ft 312 kts 143°
2026-05-08 19:16 40.82037 -80.57677 9945 ft 313 kts 143°
2026-05-08 19:16 40.80330 -80.55701 9935 ft 312 kts 143°
2026-05-08 19:16 40.78604 -80.53679 9920 ft 311 kts 143°
2026-05-08 19:16 40.76881 -80.51653 9928 ft 312 kts 143°
2026-05-08 19:17 40.75182 -80.49654 9942 ft 312 kts 142°
2026-05-08 19:17 40.73449 -80.47624 9952 ft 312 kts 143°
2026-05-08 19:17 40.71711 -80.45636 9956 ft 312 kts 143°
2026-05-08 19:17 40.69987 -80.43676 9956 ft 312 kts 143°
2026-05-08 19:18 40.68288 -80.41746 9956 ft 312 kts 143°
2026-05-08 19:18 40.66575 -80.39797 9958 ft 313 kts 143°
2026-05-08 19:18 40.64883 -80.37872 9959 ft 313 kts 143°
2026-05-08 19:18 40.63221 -80.35983 9957 ft 313 kts 143°
2026-05-08 19:19 40.61528 -80.34061 9956 ft 313 kts 144°
2026-05-08 19:19 40.59802 -80.32051 9952 ft 314 kts 139°
2026-05-08 19:19 40.58596 -80.29538 9945 ft 322 kts 109°
2026-05-08 19:19 40.58259 -80.26550 9956 ft 323 kts 92°
2026-05-08 19:20 40.58213 -80.23493 9930 ft 323 kts 90°
2026-05-08 19:20 40.58206 -80.22534 9848 ft 324 kts 90°
2026-05-08 19:20 40.58118 -80.17590 9210 ft 325 kts 92°
2026-05-08 19:20 40.58030 -80.14635 8854 ft 325 kts 92°
2026-05-08 19:21 40.57927 -80.11630 8523 ft 323 kts 92°
2026-05-08 19:21 40.57795 -80.08739 8262 ft 318 kts 98°
2026-05-08 19:21 40.57184 -80.05984 7871 ft 309 kts 119°
2026-05-08 19:21 40.55981 -80.03693 7481 ft 292 kts 137°
2026-05-08 19:22 40.54551 -80.01817 7129 ft 282 kts 137°
2026-05-08 19:22 40.53302 -79.99786 6799 ft 280 kts 129°
2026-05-08 19:22 40.52175 -79.97654 6466 ft 277 kts 127°
2026-05-08 19:22 40.51114 -79.95506 6132 ft 276 kts 126°
2026-05-08 19:23 40.50077 -79.93348 5816 ft 278 kts 126°
2026-05-08 19:23 40.49009 -79.91198 5566 ft 271 kts 134°
2026-05-08 19:23 40.47550 -79.89812 5180 ft 249 kts 171°
2026-05-08 19:23 40.45891 -79.89856 4802 ft 230 kts 209°
2026-05-08 19:24 40.44685 -79.91127 4435 ft 214 kts 241°
2026-05-08 19:24 40.44250 -79.92893 4260 ft 195 kts 269°
2026-05-08 19:24 40.44510 -79.94531 4217 ft 179 kts 294°
2026-05-08 19:24 40.45278 -79.95802 4202 ft 176 kts 310°
2026-05-08 19:25 40.46196 -79.96927 4271 ft 174 kts 311°
2026-05-08 19:25 40.47058 -79.97969 4215 ft 153 kts 310°
2026-05-08 19:25 40.47707 -79.98949 4139 ft 133 kts 291°
2026-05-08 19:25 40.47937 -80.00127 4087 ft 130 kts 274°
2026-05-08 19:26 40.48023 -80.01328 4011 ft 131 kts 272°
2026-05-08 19:26 40.48085 -80.02549 3840 ft 131 kts 271°
2026-05-08 19:26 40.48131 -80.03770 3660 ft 131 kts 271°
2026-05-08 19:26 40.48168 -80.04985 3481 ft 130 kts 270°
2026-05-08 19:27 40.48201 -80.06198 3305 ft 130 kts 270°
2026-05-08 19:27 40.48230 -80.07428 3117 ft 129 kts 270°
2026-05-08 19:27 40.48259 -80.08647 2946 ft 129 kts 270°
2026-05-08 19:27 40.48288 -80.09869 2772 ft 129 kts 270°
2026-05-08 19:28 40.48316 -80.11094 2593 ft 128 kts 270°
2026-05-08 19:28 40.48347 -80.12357 2416 ft 128 kts 270°
2026-05-08 19:28 40.48377 -80.13611 2230 ft 127 kts 270°
2026-05-08 19:28 40.48408 -80.14819 2058 ft 127 kts 270°
2026-05-08 19:29 40.48438 -80.16049 1864 ft 126 kts 270°
2026-05-08 19:29 40.48469 -80.17268 1700 ft 126 kts 270°
2026-05-08 19:29 40.48500 -80.18494 1515 ft 125 kts 270°
2026-05-08 19:29 40.48531 -80.19697 1347 ft 123 kts 270°
2026-05-08 19:30 40.48562 -80.20879 1167 ft 121 kts 271°
2026-05-08 19:30 40.48586 -80.21965 1121 ft 97 kts 272°
2026-05-08 19:30 40.48599 -80.22450 1124 ft 5 kts 271°
2026-05-08 19:30 40.48600 -80.22543 1125 ft 16 kts 271°
2026-05-08 19:31 40.48601 -80.22575 1125 ft 1 kts 272°
2026-05-08 19:31 40.48603 -80.22711 1126 ft 19 kts 274°
2026-05-08 19:31 40.48613 -80.22863 1128 ft 14 kts 274°
2026-05-08 19:31 40.48626 -80.22992 1129 ft 13 kts 281°
2026-05-08 19:32 40.48656 -80.23112 1131 ft 0 kts 293°
2026-05-08 19:33 40.48660 -80.23123 1131 ft 7 kts 295°
2026-05-08 19:33 40.48724 -80.23281 1133 ft 23 kts 312°
2026-05-08 19:34 40.48768 -80.23354 1134 ft 7 kts 297°
2026-05-08 19:34 40.48795 -80.23508 1136 ft 18 kts 277°
2026-05-08 19:34 40.48802 -80.23676 1138 ft 16 kts 271°
2026-05-08 19:34 40.48805 -80.23789 1139 ft 7 kts 278°
2026-05-08 19:35 40.48830 -80.23848 1139 ft 7 kts 314°